DW6344 Weather Reports


Display with metric or nautical units.
time (UTC)temp
F
wind
direction
speed
MPH
gust
MPH
rain 1hr
in
rain 24hr
in
rain mn
in
humidity
%
barometer
mb
20260506215830 76 256 1.0 3.0 0.00 0.01 0.01 61 1007.8
20260506215333 76 88 1.0 2.0 0.00 0.01 0.01 60 1007.6
20260506214851 76 84 0.0 2.0 0.00 0.01 0.01 61 1007.7
20260506214338 75 83 0.0 2.0 0.00 0.01 0.01 62 1007.7
20260506213834 76 82 0.0 2.0 0.00 0.01 0.01 61 1007.5
20260506213338 76 82 1.0 2.0 0.00 0.01 0.01 61 1007.3
20260506212853 76 87 0.0 3.0 0.00 0.01 0.01 60 1007.3
20260506212355 76 204 0.0 3.0 0.00 0.01 0.01 61 1007.4
20260506211850 76 227 1.0 4.0 0.00 0.01 0.01 60 1007.6
20260506211329 76 220 1.0 4.0 0.01 0.01 0.01 59 1007.6
20260506210828 76 331 1.0 4.0 0.01 0.01 0.01 59 1007.6
20260506210345 76 319 1.0 4.0 0.01 0.01 0.01 59 1007.5
20260506205848 76 23 1.0 3.0 0.01 0.01 0.01 59 1007.6
20260506205332 76 340 1.0 4.0 0.01 0.01 0.01 59 1007.4
20260506204838 76 329 1.0 4.0 0.01 0.01 0.01 59 1007.4
20260506204334 76 49 1.0 5.0 0.01 0.01 0.01 59 1007.1
20260506203838 76 345 2.0 5.0 0.01 0.01 0.01 59 1007.1
20260506203343 76 18 1.0 8.0 0.01 0.01 0.01 59 1007.0
20260506202832 76 184 2.0 8.0 0.01 0.01 0.01 58 1007.1
20260506202344 76 63 1.0 4.0 0.01 0.01 0.01 59 1007.0
20260506201849 76 211 2.0 5.0 0.01 0.01 0.01 58 1006.9
20260506201339 76 111 0.0 6.0 0.00 0.00 0.00 59 1006.9
20260506200838 76 129 2.0 6.0 0.00 0.00 0.00 58 1007.1
20260506200338 76 319 1.0 4.0 0.00 0.00 0.00 59 1007.4
20260506195915 76 73 0.0 4.0 0.00 0.00 0.00 60 1007.3
20260506195348 76 36 1.0 5.0 0.00 0.00 0.00 59 1007.4
20260506194832 75 319 1.0 5.0 0.00 0.00 0.00 59 1007.3
20260506194328 75 108 1.0 7.0 0.00 0.00 0.00 61 1007.4
20260506193916 75 51 2.0 7.0 0.00 0.00 0.00 59 1007.4
20260506193337 75 360 1.0 6.0 0.00 0.00 0.00 60 1007.6
20260506192852 75 329 0.0 6.0 0.00 0.00 0.00 61 1007.8
20260506192401 75 284 1.0 6.0 0.00 0.00 0.00 59 1008.0
20260506191842 75 105 1.0 6.0 0.00 0.00 0.00 60 1008.1
20260506191332 75 211 1.0 3.0 0.00 0.00 0.00 60 1008.2
20260506190854 75 90 0.0 2.0 0.00 0.00 0.00 60 1008.4
20260506190336 75 90 0.0 3.0 0.00 0.00 0.00 61 1008.6
20260506185836 75 90 1.0 3.0 0.00 0.00 0.00 61 1008.6
20260506185348 75 42 1.0 3.0 0.00 0.00 0.00 61 1008.6
20260506184859 74 286 1.0 3.0 0.00 0.00 0.00 61 1008.7
20260506184351 74 239 1.0 3.0 0.00 0.00 0.00 63 1008.8
20260506183829 74 86 0.0 3.0 0.00 0.00 0.00 62 1009.0
20260506183334 74 126 0.0 4.0 0.00 0.00 0.00 64 1009.0
20260506182833 74 125 1.0 4.0 0.00 0.00 0.00 61 1009.1
20260506182329 74 65 0.0 6.0 0.00 0.00 0.00 62 1009.2
20260506181906 74 67 1.0 6.0 0.00 0.00 0.00 59 1009.2
20260506181343 75 71 1.0 6.0 0.00 0.00 0.00 59 1009.1
20260506180846 75 49 1.0 5.0 0.00 0.00 0.00 60 1009.2
20260506180341 75 53 0.0 4.0 0.00 0.00 0.00 60 1009.2
20260506175847 75 159 2.0 5.0 0.00 0.00 0.00 59 1009.2
20260506175342 74 328 2.0 5.0 0.00 0.00 0.00 62 1009.2
20260506174843 74 91 2.0 6.0 0.00 0.00 0.00 61 1009.2
20260506174342 74 85 1.0 6.0 0.00 0.00 0.00 63 1009.2
20260506173829 74 129 1.0 6.0 0.00 0.00 0.00 62 1009.1
20260506173338 73 144 1.0 5.0 0.00 0.00 0.00 63 1009.2
20260506172833 72 22 1.0 5.0 0.00 0.00 0.00 66 1009.1
20260506172347 72 82 1.0 6.0 0.00 0.00 0.00 67 1009.4
20260506171907 72 230 2.0 6.0 0.00 0.00 0.00 64 1009.3
20260506171337 72 319 2.0 6.0 0.00 0.00 0.00 67 1009.2
20260506170832 71 255 1.0 5.0 0.00 0.00 0.00 67 1009.2
20260506170330 71 360 1.0 5.0 0.00 0.00 0.00 69 1009.4
20260506165834 70 318 1.0 5.0 0.00 0.00 0.00 71 1009.6
20260506165336 70 125 1.0 5.0 0.00 0.00 0.00 70 1009.9
20260506164836 69 271 1.0 4.0 0.00 0.00 0.00 71 1010.2
20260506164351 69 338 1.0 5.0 0.00 0.00 0.00 71 1010.0
20260506163833 69 130 1.0 5.0 0.00 0.00 0.00 72 1010.0
20260506163333 69 103 0.0 3.0 0.00 0.00 0.00 74 1010.0
20260506162831 69 104 1.0 3.0 0.00 0.00 0.00 74 1010.2
20260506162404 68 104 0.0 5.0 0.00 0.00 0.00 76 1010.4
20260506161902 68 101 0.0 5.0 0.00 0.00 0.00 76 1010.4
20260506161338 68 86 0.0 3.0 0.00 0.00 0.00 75 1010.4
20260506160828 69 86 0.0 5.0 0.00 0.00 0.00 74 1010.4
20260506160406 69 24 0.0 5.0 0.00 0.00 0.00 73 1010.5
20260506155835 69 56 0.0 3.0 0.00 0.00 0.00 72 1010.6
20260506155419 68 52 0.0 2.0 0.00 0.00 0.00 75 1010.6
20260506154841 68 52 0.0 3.0 0.00 0.00 0.00 77 1010.6
20260506154338 68 49 0.0 3.0 0.00 0.00 0.00 77 1010.8
20260506153842 67 71 0.0 2.0 0.00 0.00 0.00 77 1010.8
20260506153400 67 94 0.0 2.0 0.00 0.00 0.00 77 1010.9
20260506152834 68 96 0.0 2.0 0.00 0.00 0.00 75 1010.9
20260506152334 68 61 1.0 2.0 0.00 0.00 0.00 75 1010.9
20260506151834 68 63 0.0 2.0 0.00 0.00 0.00 75 1011.0
20260506151331 68 62 0.0 3.0 0.00 0.00 0.00 76 1011.0
20260506150906 68 21 1.0 5.0 0.00 0.00 0.00 74 1011.0
20260506150334 69 107 1.0 5.0 0.00 0.00 0.00 72 1011.0
20260506145831 70 69 1.0 6.0 0.00 0.00 0.00 69 1011.1
20260506145351 71 99 1.0 6.0 0.00 0.00 0.00 67 1011.4
20260506144904 71 67 2.0 7.0 0.00 0.00 0.00 65 1011.4
20260506144336 70 178 2.0 7.0 0.00 0.00 0.00 66 1011.4
20260506143829 70 150 2.0 6.0 0.00 0.00 0.00 67 1011.0
20260506143417 70 17 0.0 4.0 0.00 0.00 0.00 67 1011.0
20260506142835 70 16 1.0 5.0 0.00 0.00 0.00 67 1010.8
20260506142337 69 75 1.0 5.0 0.00 0.00 0.00 68 1010.8
20260506141857 69 144 1.0 3.0 0.00 0.00 0.00 69 1010.7
20260506141357 68 42 1.0 3.0 0.00 0.00 0.00 70 1010.8
20260506140833 68 34 0.0 2.0 0.00 0.00 0.00 71 1010.8
20260506140333 68 28 0.0 3.0 0.00 0.00 0.00 70 1010.8
20260506135834 69 28 1.0 3.0 0.00 0.00 0.00 69 1010.9
20260506135410 69 319 0.0 5.0 0.00 0.00 0.00 68 1011.0
20260506134858 69 127 1.0 5.0 0.00 0.00 0.00 67 1010.7
20260506134330 69 5 1.0 3.0 0.00 0.00 0.00 67 1010.8
20260506133854 69 275 1.0 6.0 0.00 0.00 0.00 66 1010.8
20260506133330 69 101 1.0 6.0 0.00 0.00 0.00 66 1010.8
20260506132901 70 340 1.0 8.0 0.00 0.00 0.00 65 1010.7
20260506132343 70 5 2.0 8.0 0.00 0.00 0.00 65 1010.8
20260506131925 70 53 2.0 7.0 0.00 0.00 0.00 65 1010.6
20260506131329 70 42 2.0 6.0 0.00 0.00 0.00 65 1010.8
20260506130838 70 29 1.0 6.0 0.00 0.00 0.00 65 1010.8
20260506130356 70 98 1.0 6.0 0.00 0.00 0.00 66 1010.9
20260506125850 70 42 1.0 6.0 0.00 0.00 0.00 66 1010.9
20260506125352 69 9 1.0 5.0 0.00 0.00 0.00 66 1010.9
20260506124835 69 19 1.0 5.0 0.00 0.00 0.00 67 1010.9
20260506124403 68 58 0.0 5.0 0.00 0.00 0.00 68 1010.9
20260506123855 68 26 1.0 5.0 0.00 0.00 0.00 67 1010.8
20260506123339 68 53 2.0 5.0 0.00 0.00 0.00 68 1010.7
20260506122832 67 143 1.0 2.0 0.00 0.00 0.00 69 1010.7
20260506122342 67 63 0.0 7.0 0.00 0.00 0.00 69 1010.9
20260506121846 67 63 1.0 7.0 0.00 0.00 0.00 69 1010.9
20260506121355 67 105 1.0 3.0 0.00 0.00 0.00 69 1011.0
20260506120841 67 79 1.0 4.0 0.00 0.00 0.00 69 1011.1
20260506120346 66 36 1.0 4.0 0.00 0.00 0.00 70 1011.1
20260506115900 66 98 1.0 5.0 0.00 0.00 0.00 70 1011.0
20260506115330 66 5 0.0 4.0 0.00 0.00 0.00 70 1011.0
20260506114905 66 171 1.0 4.0 0.00 0.00 0.00 70 1011.0
20260506114333 66 80 1.0 4.0 0.00 0.00 0.00 70 1011.1
20260506113851 66 146 0.0 5.0 0.00 0.00 0.00 70 1011.1
20260506113352 66 72 1.0 5.0 0.00 0.00 0.00 70 1011.1
20260506112828 66 178 1.0 4.0 0.00 0.00 0.00 70 1011.0
20260506112328 65 65 2.0 6.0 0.00 0.00 0.00 70 1011.0
20260506111901 65 48 1.0 4.0 0.00 0.00 0.00 70 1011.0
20260506111352 65 5 1.0 5.0 0.00 0.00 0.00 70 1011.0
20260506110833 65 341 1.0 4.0 0.00 0.00 0.00 70 1011.0
20260506110335 65 34 1.0 3.0 0.00 0.00 0.00 70 1011.1
20260506105847 65 63 1.0 4.0 0.00 0.00 0.00 70 1011.0
20260506105400 65 32 0.0 7.0 0.00 0.00 0.00 70 1011.0
20260506104905 65 87 1.0 7.0 0.00 0.00 0.00 70 1010.9
20260506104339 65 5 1.0 5.0 0.00 0.00 0.00 70 1010.8
20260506103834 65 68 1.0 5.0 0.00 0.00 0.00 70 1010.8
20260506103408 64 86 1.0 5.0 0.00 0.00 0.00 70 1010.8
20260506102856 64 126 1.0 5.0 0.00 0.00 0.00 70 1010.8
20260506102329 64 78 1.0 5.0 0.00 0.00 0.00 70 1010.8
20260506101850 64 15 1.0 3.0 0.00 0.00 0.00 70 1010.8
20260506101358 64 53 1.0 3.0 0.00 0.00 0.00 70 1010.8
20260506100900 64 53 0.0 2.0 0.00 0.00 0.00 70 1010.7
20260506100345 64 48 0.0 2.0 0.00 0.00 0.00 70 1010.6
20260506095906 64 88 1.0 4.0 0.00 0.00 0.00 70 1010.6
20260506095329 64 336 0.0 4.0 0.00 0.00 0.00 70 1010.6
20260506094834 64 66 1.0 3.0 0.00 0.00 0.00 70 1010.6
20260506094335 64 76 0.0 5.0 0.00 0.00 0.00 69 1010.6
20260506093841 64 52 1.0 5.0 0.00 0.00 0.00 70 1010.6
20260506093401 64 21 1.0 4.0 0.00 0.00 0.00 70 1010.7
20260506092853 64 74 1.0 4.0 0.00 0.00 0.00 70 1010.7
20260506092354 64 72 1.0 4.0 0.00 0.00 0.00 69 1010.7
20260506091832 64 78 1.0 4.0 0.00 0.00 0.00 69 1010.7
20260506091345 64 71 1.0 3.0 0.00 0.00 0.00 69 1010.8
20260506090830 64 314 1.0 5.0 0.00 0.00 0.00 69 1010.8
20260506090339 64 158 1.0 6.0 0.00 0.00 0.00 69 1010.8
20260506085832 64 207 1.0 6.0 0.00 0.00 0.00 69 1010.9
20260506085334 64 126 1.0 5.0 0.00 0.00 0.00 68 1011.0
20260506084837 65 107 0.0 3.0 0.00 0.00 0.00 69 1011.0
20260506084335 65 145 1.0 3.0 0.00 0.00 0.00 68 1011.0
20260506083902 65 55 1.0 4.0 0.00 0.00 0.00 68 1011.0
20260506083357 65 99 1.0 3.0 0.00 0.00 0.00 68 1011.1
20260506082846 65 151 0.0 3.0 0.00 0.00 0.00 68 1011.0
20260506082348 65 315 1.0 5.0 0.00 0.00 0.00 68 1011.0
20260506081833 65 92 2.0 5.0 0.00 0.00 0.00 67 1010.9
20260506081327 65 41 1.0 5.0 0.00 0.00 0.00 67 1010.9
20260506080855 65 57 1.0 3.0 0.00 0.00 0.00 67 1011.0
20260506080343 65 348 1.0 5.0 0.00 0.00 0.00 67 1011.0
20260506073332 65 18 1.0 4.0 0.00 0.00 0.00 67 1011.1
20260506072850 65 16 1.0 7.0 0.00 0.00 0.00 67 1011.1
20260506072351 65 148 1.0 7.0 0.00 0.00 0.00 67 1011.1
20260506071852 65 63 1.0 6.0 0.00 0.00 0.00 67 1011.1
20260506071346 65 124 1.0 3.0 0.00 0.00 0.00 67 1011.2
20260506070830 65 128 1.0 9.0 0.00 0.00 0.00 67 1011.2
20260506070330 65 85 1.0 5.0 0.00 0.00 0.00 66 1011.2
20260506062339 66 25 1.0 5.0 0.00 0.00 0.00 66 1011.3
20260506061840 66 117 2.0 6.0 0.00 0.00 0.00 65 1011.3
20260506061328 66 97 2.0 6.0 0.00 0.00 0.00 65 1011.3
20260506060837 66 44 1.0 5.0 0.00 0.00 0.00 65 1011.4
20260506060349 66 18 2.0 5.0 0.00 0.00 0.00 65 1011.4
20260506051343 67 43 1.0 4.0 0.00 0.00 0.00 66 1011.8
20260506050920 67 41 1.0 4.0 0.00 0.00 0.00 66 1012.0
20260506050402 67 71 2.0 4.0 0.00 0.00 0.00 66 1012.0
20260506044837 67 31 0.0 5.0 0.00 0.00 0.00 66 1012.1
20260506044405 67 75 1.0 7.0 0.00 0.00 0.00 65 1012.0
20260506043830 67 182 1.0 5.0 0.00 0.00 0.00 65 1012.1
20260506043409 68 59 1.0 5.0 0.00 0.00 0.00 65 1012.1
20260506042843 68 331 1.0 5.0 0.00 0.00 0.00 65 1012.1
20260506042347 68 51 1.0 4.0 0.00 0.00 0.00 64 1012.1
20260506041851 68 128 1.0 4.0 0.00 0.00 0.00 64 1012.0
20260506041347 68 346 1.0 4.0 0.00 0.00 0.00 64 1012.1
20260506040846 68 86 1.0 8.0 0.00 0.00 0.00 64 1012.1
20260506040403 68 86 1.0 8.0 0.00 0.00 0.00 64 1012.1
20260506035848 69 190 1.0 4.0 0.00 0.00 0.00 63 1012.1
20260506035351 69 113 1.0 5.0 0.00 0.00 0.00 63 1012.1
20260506034858 69 17 1.0 5.0 0.00 0.00 0.00 63 1012.1
20260506034358 69 19 1.0 4.0 0.00 0.00 0.00 63 1012.0
20260506033833 69 5 1.0 5.0 0.00 0.00 0.00 62 1011.9
20260506033336 69 28 1.0 5.0 0.00 0.00 0.00 62 1012.0
20260506032829 70 15 0.0 7.0 0.00 0.00 0.00 62 1012.0
20260506032408 70 33 2.0 7.0 0.00 0.00 0.00 62 1012.0
20260506031908 70 51 1.0 7.0 0.00 0.00 0.00 61 1012.0
20260506031403 70 74 1.0 6.0 0.00 0.00 0.00 61 1012.0
20260506030839 70 340 1.0 6.0 0.00 0.00 0.00 61 1012.0
20260506030419 70 55 1.0 7.0 0.00 0.00 0.00 61 1012.0
20260506025832 71 55 1.0 7.0 0.00 0.00 0.00 60 1012.0
20260506025354 71 67 1.0 7.0 0.00 0.00 0.00 60 1012.0
20260506024906 71 42 1.0 7.0 0.00 0.00 0.00 59 1012.0
20260506024346 71 15 1.0 6.0 0.00 0.00 0.00 59 1011.9
20260506023901 71 65 2.0 6.0 0.00 0.00 0.00 58 1012.0
20260506023337 72 72 1.0 6.0 0.00 0.00 0.00 58 1012.0
20260506022831 72 217 1.0 6.0 0.00 0.00 0.00 58 1012.0
20260506022350 72 92 1.0 6.0 0.00 0.00 0.00 57 1011.9
20260506021849 72 113 1.0 5.0 0.00 0.00 0.00 56 1011.8
20260506021345 72 90 1.0 5.0 0.00 0.00 0.00 56 1011.8
20260506020835 73 70 2.0 5.0 0.00 0.00 0.00 56 1011.7
20260506020345 73 152 1.0 4.0 0.00 0.00 0.00 55 1011.6
20260506015851 73 58 0.0 4.0 0.00 0.00 0.00 54 1011.4
20260506015340 73 304 1.0 6.0 0.00 0.00 0.00 53 1011.3
20260506014842 73 44 1.0 7.0 0.00 0.00 0.00 53 1011.3
20260506014354 73 28 1.0 7.0 0.00 0.00 0.00 53 1011.3
20260506013829 73 58 1.0 8.0 0.00 0.00 0.00 52 1011.3
20260506013401 73 70 1.0 4.0 0.00 0.00 0.00 52 1011.1
20260506012838 73 360 0.0 3.0 0.00 0.00 0.00 52 1011.2
20260506012339 74 40 0.0 6.0 0.00 0.00 0.00 51 1011.2
20260506011857 74 40 1.0 6.0 0.00 0.00 0.00 51 1011.1
20260506011331 74 68 0.0 3.0 0.00 0.00 0.00 50 1011.2
20260506010829 74 109 1.0 3.0 0.00 0.00 0.00 49 1011.1
20260506010333 74 86 1.0 3.0 0.00 0.00 0.00 49 1011.1
20260506005831 74 59 0.0 4.0 0.00 0.00 0.00 48 1011.0
20260506005400 74 57 0.0 4.0 0.00 0.00 0.00 48 1010.8
20260506004838 74 125 0.0 4.0 0.00 0.00 0.00 48 1010.6
20260506004342 75 63 0.0 4.0 0.00 0.00 0.00 47 1010.6
20260506003839 75 88 0.0 2.0 0.00 0.00 0.00 46 1010.6
20260506003333 75 88 0.0 2.0 0.00 0.00 0.00 47 1010.6
20260506002828 75 32 0.0 2.0 0.00 0.00 0.00 46 1010.5
20260506002400 75 32 0.0 2.0 0.00 0.00 0.00 46 1010.6
20260506001859 75 28 0.0 3.0 0.00 0.00 0.00 45 1010.6
20260506001354 76 60 0.0 3.0 0.00 0.00 0.00 45 1010.5
20260506000905 76 74 0.0 3.0 0.00 0.00 0.00 45 1010.4
20260506000344 76 59 0.0 2.0 0.00 0.00 0.00 44 1010.5
20260505235855 76 18 0.0 2.0 0.00 0.00 0.00 44 1010.4
20260505235341 77 78 0.0 3.0 0.00 0.00 0.00 43 1010.3
20260505234855 77 104 0.0 4.0 0.00 0.00 0.00 43 1010.3
20260505234334 77 252 1.0 4.0 0.00 0.00 0.00 42 1010.4
20260505233834 77 33 0.0 7.0 0.00 0.00 0.00 42 1010.3
20260505233350 78 53 1.0 5.0 0.00 0.00 0.00 41 1010.3
20260505232906 78 82 2.0 4.0 0.00 0.00 0.00 42 1010.4
20260505232330 78 68 1.0 7.0 0.00 0.00 0.00 41 1010.4
20260505231838 78 306 1.0 7.0 0.00 0.00 0.00 41 1010.2
20260505231336 79 59 2.0 8.0 0.00 0.00 0.00 40 1010.4
20260505230834 79 40 1.0 8.0 0.00 0.00 0.00 39 1010.3
20260505230339 79 142 1.0 8.0 0.00 0.00 0.00 40 1010.2
20260505225848 79 20 2.0 7.0 0.00 0.00 0.00 40 1010.3
20260505225347 80 175 2.0 7.0 0.00 0.00 0.00 39 1010.2
20260505224848 80 360 0.0 5.0 0.00 0.00 0.00 39 1010.1
20260505224353 80 94 1.0 5.0 0.00 0.00 0.00 39 1010.1
20260505223906 80 239 1.0 5.0 0.00 0.00 0.00 37 1010.1
20260505223347 80 240 1.0 5.0 0.00 0.00 0.00 37 1010.1
20260505222841 80 43 2.0 8.0 0.00 0.00 0.00 36 1010.0
20260505222345 80 103 2.0 8.0 0.00 0.00 0.00 35 1010.1
20260505221905 80 355 2.0 6.0 0.00 0.00 0.00 34 1010.0
20260505221330 80 349 1.0 9.0 0.00 0.00 0.00 34 1010.0
20260505220840 81 100 2.0 7.0 0.00 0.00 0.00 34 1010.0
20260505220345 81 63 2.0 7.0 0.00 0.00 0.00 33 1010.0